Alexandria, Egypt

9:14 AM EET on July 28, 2016 (GMT +0200)
Alexandria International

Weather History for HEAX - October, 2012

Change the Weather History Date:

Tuesday, October 16, 2012

  Actual Average Record
Temperature  
Mean Temperature 77 °F -  
Max Temperature 84 °F 75 °F 85 °F (2015)
Min Temperature 70 °F 60 °F 59 °F (2013)
Cooling Degree Days 12    
Growing Degree Days 27 (Base 50)    
Moisture  
Dew Point 70 °F    
Average Humidity 77    
Maximum Humidity 94    
Minimum Humidity 53    
Precipitation  
Precipitation 0.00 in 0.03 in - ()
Sea Level Pressure  
Sea Level Pressure 30.02 in    
Wind  
Wind Speed 5 mph ()    
Max Wind Speed 14 mph    
Max Gust Speed -    
Visibility 6.1 miles    
Events      
Averages and records for this station are not official NWS values.
T = Trace of Precipitation, MM = Missing Value Source: Averaged Metar Reports

Daily Weather History Graph

Daily Weather History Graph

Search for Another Location

Airport or City:

Trip Planner

Search our weather history database for the weather conditions in past years. The results will help you decide how hot, cold, wet, or windy it might be!

Date:

Astronomy

Oct. 16, 2012 Rise Set
Actual Time 6:03 AM EET 5:27 PM EET
Civil Twilight 5:39 AM EET 5:51 PM EET
Nautical Twilight 5:11 AM EET 6:19 PM EET
Astronomical Twilight 4:43 AM EET 6:47 PM EET
Moon 6:55 AM EET (10/16) 6:04 PM EET (10/16)
Length of Visible Light 12h 12m
Length of Day
11h 23m
New Moon, 1% of the Moon is Illuminated
Oct 16
New Moon
Oct 22
First Quarter
Oct 29
Full
Nov 7
Last Quarter
Nov 14
New

Hourly Weather History & Observations

Time (EET) Temp. Heat Index Dew Point Humidity Pressure Visibility Wind Dir Wind Speed Gust Speed Precip Events Conditions
12:00 AM 75.2 °F - 68.0 °F 78% 30.04 in - NE 6.9 mph - N/A   Clear
1:00 AM 73.4 °F - 68.0 °F 83% 30.04 in - NE 5.8 mph - N/A   Clear
2:00 AM 72 °F - 68 °F 82% 30.03 in 6 mi Calm Calm - -  
2:00 AM 71.6 °F - 68.0 °F 88% 30.01 in - Calm Calm - N/A   Clear
3:00 AM 71.6 °F - 68.0 °F 88% 30.01 in - Calm Calm - N/A   Clear
4:00 AM 69.8 °F - 68.0 °F 94% 30.01 in - Calm Calm - N/A   Clear
5:00 AM 71.6 °F - 68.0 °F 88% 30.01 in - East 4.6 mph - N/A   Clear
6:00 AM 71.6 °F - 68.0 °F 88% 30.01 in - NE 3.5 mph - N/A   Clear
7:00 AM 73.4 °F - 68.0 °F 83% 30.01 in - NE 2.3 mph - N/A   Clear
8:00 AM 77 °F - 70 °F 74% 30.04 in 6 mi ENE 5.8 mph - -   Scattered Clouds
8:00 AM 77.0 °F - 69.8 °F 78% 30.04 in 6.2 mi ENE 5.8 mph - N/A   Partly Cloudy
9:00 AM 80.6 °F 83.9 °F 69.8 °F 70% 30.04 in 6.2 mi ENE 5.8 mph - N/A   Scattered Clouds
10:00 AM 82.4 °F 86.3 °F 69.8 °F 66% 30.01 in 6.2 mi NE 11.5 mph - N/A   Mostly Cloudy
11:00 AM 82.4 °F 84.6 °F 66.2 °F 58% 30.04 in 6.2 mi NE 10.4 mph - N/A   Mostly Cloudy
12:00 PM 84.2 °F 88.4 °F 69.8 °F 62% 30.04 in 6.2 mi NE 11.5 mph - N/A   Mostly Cloudy
1:00 PM 84.2 °F 88.4 °F 69.8 °F 62% 30.01 in 6.2 mi NE 13.8 mph - N/A   Mostly Cloudy
2:00 PM 84 °F - 69 °F 53% 30.00 in 6 mi NE 13.8 mph - -   Scattered Clouds
2:00 PM 84.2 °F 88.4 °F 69.8 °F 62% 30.01 in 6.2 mi NE 13.8 mph - N/A   Mostly Cloudy
3:00 PM 82.4 °F 86.3 °F 69.8 °F 66% 30.01 in 6.2 mi NNE 11.5 mph - N/A   Mostly Cloudy
5:00 PM 78.8 °F - 71.6 °F 78% 29.98 in 6.2 mi NE 11.5 mph - N/A   Mostly Cloudy
6:00 PM 78.8 °F - 71.6 °F 78% 29.98 in 6.2 mi NE 11.5 mph - N/A   Mostly Cloudy
7:00 PM 77.0 °F - 71.6 °F 83% 30.01 in 6.2 mi NE 6.9 mph - N/A   Scattered Clouds
8:00 PM 78 °F - 71 °F 74% 30.04 in 6 mi ENE 3.5 mph - -  
8:00 PM 77.0 °F - 71.6 °F 83% 30.04 in - ENE 3.5 mph - N/A   Clear
9:00 PM 77.0 °F - 71.6 °F 83% 30.04 in - ENE 6.9 mph - N/A   Clear
10:00 PM 77.0 °F - 71.6 °F 83% 30.01 in - NNE 3.5 mph - N/A   Clear
11:00 PM 77.0 °F - 71.6 °F 83% 30.01 in - NE 5.8 mph - N/A   Clear